Temperature
10 11 11 11 11 12 11 12 12 12 12 12 12 11 11 12 12 12 12 12 12 12 12 12 12 12 12 11 11 11 10 10 10 10 10 10 10 10 10 10 10 10 10
10 10 11 11 11 11 11 11 11 11 11 11 12 12 12 12 12 12 12 12 12 12 12 12 12 12 12 11 11 11 10 10 10 10 9 9 10 10 10 10 10 10 10
9 10 10 11 11 11 11 11 11 11 11 11 11 11 11 11 11 11 11 11 12 12 12 12 12 12 12 11 11 11 11 10 10 10 10 10 10 10 10 10 10 10 10
9 10 10 10 10 11 11 11 11 11 11 11 11 11 11 11 11 11 11 11 11 12 12 12 12 12 12 12 11 11 11 11 10 10 10 10 10 10 10 10 10 10 10
9 9 10 10 10 10 10 10 10 11 11 11 11 11 11 11 11 11 11 11 11 11 11 11 12 12 12 12 11 11 11 11 10 10 10 10 10 10 10 10 10 10 10
9 9 9 10 10 10 10 10 10 10 10 10 10 10 11 11 11 11 11 11 11 11 11 11 12 12 12 12 11 11 11 11 10 10 10 10 10 10 10 10 10 10 10
8 8 9 9 9 10 10 10 10 10 10 10 10 10 11 11 11 11 11 11 11 11 12 11 11 11 12 12 11 11 11 10 10 10 10 10 10 10 10 10 10 10 10
8 8 8 9 9 9 9 9 9 9 9 9 10 10 10 11 11 11 11 11 11 11 12 12 12 11 11 11 11 11 11 10 10 10 10 10 10 10 10 10 10 9 9
8 8 8 8 8 8 8 9 9 9 9 9 9 10 10 10 10 11 11 11 11 11 11 11 11 11 11 11 11 11 11 10 10 10 10 10 10 10 10 10 10 9 9
7 7 8 8 8 8 8 8 8 8 8 9 9 9 9 10 10 10 10 11 11 11 11 11 11 11 11 11 11 10 10 10 10 10 10 10 10 10 9 9 9 9 9
7 7 7 7 8 7 8 8 8 8 8 8 8 9 9 9 10 10 10 11 11 11 11 11 11 11 11 11 10 10 10 10 10 10 10 10 10 9 9 9 9 9 9
6 7 7 7 7 7 7 7 7 7 7 8 8 8 8 9 9 10 10 10 10 11 11 10 11 11 11 11 10 10 10 10 10 10 10 10 10 9 9 9 9 9 9
6 6 6 6 6 6 6 6 6 7 7 7 7 7 8 8 9 10 10 10 10 10 10 10 10 10 10 10 10 10 10 10 10 10 10 10 10 9 9 9 9 9 9
5 5 5 6 6 6 6 6 6 6 6 6 7 7 7 8 8 9 9 9 9 10 10 10 10 10 10 10 10 10 10 10 10 10 10 10 9 9 9 9 9 9 8
5 5 5 5 5 5 5 6 6 6 6 6 6 7 7 7 8 8 9 9 9 10 10 10 10 10 10 10 10 10 10 10 10 10 10 9 9 9 9 9 9 8 8
5 5 5 5 5 5 5 5 5 5 5 5 6 6 7 7 7 7 8 8 9 9 9 9 9 9 9 10 10 10 10 10 10 10 9 9 9 9 9 9 8 8 8
4 4 4 4 4 4 4 4 4 5 5 5 5 5 6 6 7 7 7 8 8 9 9 9 9 9 9 9 9 9 9 9 9 9 9 9 9 9 8 8 8 8 8
4 4 4 4 4 4 4 4 4 4 4 5 5 5 5 6 6 6 7 7 8 8 8 8 8 9 9 9 9 9 9 9 9 9 9 9 9 9 8 8 8 7 7
4 4 4 3 3 3 3 3 3 4 4 4 4 4 5 5 5 6 6 7 7 7 8 8 8 8 8 9 9 9 8 9 9 9 9 9 9 8 8 7 7 7 7
4 3 3 3 3 3 3 3 3 3 3 3 4 4 4 4 5 5 6 6 7 7 7 8 8 8 8 8 8 8 8 8 8 8 8 8 8 8 7 7 7 7 6
3 3 3 3 2 2 2 2 2 3 3 3 3 3 4 4 4 5 5 6 6 7 7 7 7 8 8 8 8 8 8 8 8 8 8 8 8 7 7 7 7 6 6
3 3 2 2 2 2 2 2 2 2 2 2 3 3 3 3 4 5 5 6 6 6 7 7 7 7 7 7 7 8 8 8 8 8 8 8 7 7 7 6 6 6 5
2 2 2 2 2 2 2 2 2 2 2 2 2 3 3 3 3 4 5 5 5 6 6 6 6 6 7 7 7 7 7 7 7 7 7 7 7 6 6 6 5 5 5
2 2 1 1 1 1 1 1 1 1 2 2 2 2 2 3 3 4 4 4 5 5 5 6 6 6 6 6 6 6 6 7 7 7 6 6 6 6 5 5 5 4 4
1 1 1 1 1 1 1 1 1 1 1 1 1 2 2 2 3 3 3 4 4 4 5 5 5 5 6 6 6 6 6 6 6 6 6 6 5 5 5 5 4 4 4
1 0 0 0 0 0 0 0 0 0 1 1 1 1 1 2 2 2 3 3 4 4 4 5 5 5 5 5 5 5 5 5 5 6 6 5 5 5 5 4 4 4 3
Wind_Speed
10 9 9 8 7 8 8 8 8 9 8 7 8 8 8 8 8 9 12 15 15 15 14 11 11 11 11 11 11 7 8 5 5 4 1 2 2 4 4 4 4 5 8
9 8 8 6 7 8 9 9 10 9 9 8 8 7 7 7 8 8 11 14 14 15 14 14 12 12 11 12 11 9 7 5 6 5 4 1 2 3 4 4 5 6 5
9 8 6 6 6 7 7 9 10 10 9 8 6 5 4 4 6 8 9 11 13 14 13 15 12 12 12 12 12 12 10 8 6 5 5 4 5 3 3 4 5 5 5
6 5 4 5 7 8 7 8 9 9 9 9 8 9 8 8 8 8 8 10 12 13 13 14 14 13 11 12 13 11 8 10 8 5 3 3 4 3 2 2 3 4 6
5 4 4 5 6 6 6 6 8 8 8 9 10 10 8 7 5 7 9 9 10 12 13 13 14 14 12 13 13 11 11 9 9 7 4 3 2 2 3 3 2 2 4
4 4 4 4 4 4 4 4 6 7 7 8 9 10 10 8 8 9 10 9 8 9 13 12 13 14 12 13 13 12 13 11 9 7 6 5 4 4 4 4 4 3 3
2 4 4 4 4 3 4 4 5 6 6 7 8 9 10 11 12 11 11 10 8 8 13 12 12 12 13 13 13 13 13 12 12 10 7 6 5 4 4 4 3 3 2
2 3 4 4 3 3 4 4 5 5 6 6 7 7 9 9 10 11 10 11 10 10 11 13 13 13 13 13 12 11 11 11 11 11 9 6 6 5 5 5 4 2 2
3 3 4 3 2 3 4 4 5 4 5 5 5 6 7 8 9 10 10 10 9 9 11 13 13 13 12 13 13 11 12 11 11 11 10 8 6 6 5 5 5 5 4
4 5 5 4 3 3 3 2 2 4 4 4 5 5 6 8 8 9 11 11 11 11 12 13 14 13 13 13 13 11 11 12 11 9 10 9 6 6 6 6 5 5 5
5 5 3 3 3 3 2 2 2 2 3 4 4 5 6 7 7 8 9 10 10 12 13 13 14 14 14 13 13 13 12 13 12 11 11 11 8 7 6 5 5 5 5
5 4 3 3 4 4 3 2 2 3 3 3 4 4 5 5 6 8 8 8 9 10 12 12 13 14 14 13 14 15 14 14 14 13 12 11 9 9 7 7 7 6 5
6 5 4 4 4 4 4 4 3 4 4 4 4 4 5 5 6 7 7 8 8 8 10 11 12 13 14 14 14 14 14 13 13 12 12 11 11 11 7 7 7 6 5
5 5 4 3 3 4 4 4 4 4 4 4 4 4 4 4 5 6 6 7 8 8 10 10 10 11 12 13 12 12 12 12 11 11 11 11 11 11 9 8 8 6 5
6 5 4 3 3 4 4 5 5 5 5 4 5 6 4 3 4 4 5 6 7 8 9 9 9 9 10 11 11 11 12 12 11 10 10 10 11 12 10 8 8 8 6
6 5 4 4 4 4 5 5 5 6 5 4 5 6 4 3 3 4 4 5 5 6 8 9 9 10 9 11 13 12 11 11 11 10 9 9 10 11 13 13 12 11 9
5 4 4 4 5 5 5 5 5 5 5 4 5 5 5 4 4 4 3 4 5 6 7 8 9 9 9 12 13 13 11 11 11 10 9 7 8 10 9 10 10 10 10
4 4 4 4 4 4 4 4 4 4 5 5 5 6 5 4 4 4 3 3 4 5 7 8 7 8 8 11 13 13 11 10 10 10 10 9 9 9 9 7 6 4 4
4 4 4 3 3 4 5 4 4 4 4 5 6 6 6 5 4 4 4 3 3 4 6 7 7 7 8 10 12 12 8 8 8 8 9 10 9 11 12 9 7 5 2
3 3 3 2 3 4 4 3 4 4 5 6 6 6 6 6 5 4 5 4 4 4 5 6 6 7 7 9 11 12 7 8 7 7 8 11 11 12 13 9 8 7 4
3 3 2 2 3 4 3 3 4 4 5 5 6 6 6 5 5 4 4 3 3 4 5 5 5 6 6 8 10 11 8 8 8 7 7 7 12 13 13 10 8 8 7
4 3 2 3 4 3 2 3 4 5 5 5 5 6 6 5 4 4 4 2 3 3 4 4 4 4 5 7 8 9 9 9 8 7 7 8 13 13 13 9 9 12 9
5 3 3 4 4 3 2 3 5 5 4 5 5 6 6 5 4 4 4 2 2 2 3 4 4 3 3 5 7 8 7 8 6 6 9 10 13 12 9 10 13 10 6
5 4 3 4 5 4 4 4 5 4 4 4 5 5 5 5 5 4 2 2 2 2 3 3 4 4 3 4 4 5 5 5 5 5 8 11 12 9 9 9 8 5 5
5 4 4 5 6 5 5 4 4 3 4 4 5 5 5 5 5 3 2 2 2 3 3 3 4 5 5 5 6 6 5 5 5 7 5 5 6 6 5 5 5 5 5
5 4 5 5 5 5 5 4 3 3 3 4 4 4 4 4 4 3 3 4 3 4 4 4 4 4 5 6 7 7 7 8 10 8 7 7 7 7 7 6 5 5 5
Wind_Direction
260 266 257 251 239 220 208 216 213 199 190 189 189 192 198 199 201 201 192 188 188 186 183 181 182 180 178 177 171 163 165 165 152 131 125 322 259 225 218 209 207 215 215
275 272 261 243 230 221 210 211 209 199 198 198 197 197 196 199 201 199 192 189 189 189 187 182 183 183 177 174 173 162 163 167 164 151 143 207 301 268 231 213 212 218 215
264 262 255 242 236 223 218 219 208 200 200 200 193 191 188 185 199 201 196 193 190 192 190 184 181 184 179 179 177 174 169 174 180 167 156 167 214 246 267 229 221 216 213
263 262 252 239 234 228 226 214 206 202 201 198 192 191 197 203 208 203 197 192 190 190 190 186 183 184 183 179 181 179 174 170 179 185 191 175 156 166 236 278 242 223 222
256 261 261 244 242 235 221 217 210 207 200 201 197 197 204 205 200 196 192 192 193 190 189 189 184 182 186 183 181 178 177 178 180 180 173 178 176 164 172 231 255 255 239
280 277 278 270 265 249 229 224 214 212 207 205 204 203 204 198 192 199 196 194 197 194 192 191 187 183 186 186 185 184 183 186 184 183 179 171 171 185 182 210 225 233 250
296 305 299 282 271 260 240 236 220 221 218 213 212 212 208 200 199 199 201 197 199 202 198 195 191 188 189 188 184 185 187 188 188 192 196 195 195 171 170 182 204 223 251
289 290 282 274 259 254 251 237 226 231 224 221 222 222 216 207 206 199 201 203 205 206 199 193 193 190 189 190 186 189 191 191 195 198 196 200 203 190 183 178 176 209 251
308 308 300 285 279 269 260 247 230 239 234 228 236 237 224 214 213 204 201 205 205 203 198 193 192 190 188 191 188 196 194 192 197 200 200 204 204 198 199 189 181 187 223
336 331 325 319 298 282 269 280 267 238 252 248 239 248 237 222 214 207 205 206 206 199 196 197 194 190 190 192 192 196 193 194 199 199 200 206 205 199 196 196 196 195 203
340 330 320 320 330 322 309 314 322 314 286 271 265 255 247 226 215 208 209 209 208 200 199 199 196 194 193 192 194 198 192 197 201 199 202 209 199 197 197 194 196 200 196
330 328 326 344 351 340 334 320 318 314 304 295 285 269 270 238 216 211 212 209 209 203 200 197 197 196 194 192 196 198 197 200 203 202 201 206 200 201 197 195 200 202 198
331 331 331 347 349 344 340 330 319 314 312 311 305 284 277 260 236 220 214 209 209 206 200 196 198 197 195 194 198 199 198 200 203 200 202 203 197 203 199 194 199 202 199
315 319 322 326 330 332 332 330 325 317 311 304 304 285 267 268 260 237 217 211 208 205 202 197 198 198 195 195 195 197 196 198 199 199 201 201 200 202 196 197 200 195 195
309 308 303 303 311 320 325 325 320 321 316 312 308 294 280 284 281 263 227 214 210 208 198 197 197 198 196 195 192 194 195 195 197 198 200 201 198 196 195 195 194 190 194
290 294 296 299 304 307 314 319 319 320 324 315 308 309 302 292 292 276 255 218 209 207 194 194 196 199 202 193 189 191 194 193 195 197 198 196 193 194 193 192 190 190 193
278 287 289 284 286 293 301 303 308 320 325 319 314 314 314 302 293 277 266 232 217 203 199 198 199 203 201 190 189 190 193 191 195 196 194 194 193 189 192 194 193 195 196
273 282 286 291 295 302 307 305 312 321 323 322 321 322 320 307 296 285 266 257 236 204 202 201 200 204 201 191 191 188 192 192 194 195 193 191 189 188 180 175 177 183 195
259 268 272 284 300 307 307 310 317 323 325 322 322 324 324 309 299 291 272 265 246 219 205 199 198 200 201 190 188 182 189 190 193 191 190 187 187 180 167 166 166 158 143
274 278 289 302 308 305 311 320 317 323 319 313 314 318 320 311 297 291 281 268 234 228 210 202 198 199 200 191 186 181 187 187 188 185 187 185 180 172 165 168 168 172 167
272 280 291 294 292 300 316 319 317 312 307 311 314 316 317 314 304 298 289 264 234 226 210 198 196 197 196 189 185 185 190 188 186 187 187 185 173 171 171 170 176 171 156
279 278 286 293 298 304 314 313 308 304 310 315 317 316 320 320 315 308 302 266 229 211 196 187 192 192 189 188 190 190 194 190 187 189 184 177 169 168 168 168 159 149 142
265 265 261 284 298 299 292 289 294 302 313 320 319 320 322 318 317 304 291 270 232 199 193 188 189 191 190 190 187 187 188 186 190 182 170 164 162 160 162 156 151 148 149
260 257 255 271 286 291 287 276 286 298 306 310 312 315 320 319 321 304 276 247 236 214 201 193 191 190 192 185 181 182 174 165 160 153 150 149 147 145 147 149 148 151 157
256 250 244 253 267 278 282 282 286 297 302 302 304 308 311 309 314 303 282 272 248 228 228 213 200 194 204 201 188 182 180 176 168 146 138 144 149 153 151 147 147 148 147
253 251 248 252 263 273 280 284 285 283 286 296 299 301 306 311 312 313 329 330 306 300 281 244 225 224 215 194 187 182 172 165 161 153 159 164 167 168 165 163 161 158 157
Height
1416 1416 1416 1417 1417 1418 1419 1420 1421 1423 1426 1428 1430 1432 1435 1438 1441 1443 1446 1450 1454 1457 1460 1463 1466 1469 1472 1476 1481 1485 1490 1494 1498 1501 1503 1505 1506 1507 1508 1509 1509 1510 1510
1411 1411 1411 1411 1412 1413 1414 1415 1417 1418 1421 1423 1425 1427 1430 1432 1435 1438 1440 1444 1448 1451 1454 1457 1461 1464 1468 1472 1476 1480 1485 1489 1493 1496 1499 1501 1503 1502 1504 1505 1506 1506 1507
1408 1407 1406 1406 1407 1408 1408 1410 1412 1414 1415 1418 1420 1423 1425 1427 1430 1432 1434 1438 1442 1445 1448 1451 1456 1459 1462 1466 1470 1475 1479 1483 1488 1492 1494 1496 1496 1498 1500 1500 1502 1503 1503
1404 1402 1402 1404 1404 1404 1405 1406 1408 1409 1411 1413 1414 1416 1418 1419 1422 1426 1428 1432 1436 1440 1444 1447 1450 1454 1458 1461 1466 1471 1474 1479 1482 1487 1489 1492 1492 1494 1495 1497 1498 1499 1500
1400 1399 1399 1400 1400 1400 1401 1402 1404 1404 1406 1408 1409 1411 1413 1415 1418 1422 1424 1426 1430 1434 1439 1442 1445 1448 1453 1456 1461 1465 1470 1473 1477 1480 1484 1487 1488 1489 1490 1491 1493 1494 1495
1398 1397 1397 1397 1397 1397 1398 1398 1399 1400 1401 1403 1404 1406 1407 1410 1413 1416 1418 1421 1425 1429 1433 1436 1439 1443 1448 1451 1456 1460 1464 1468 1472 1476 1479 1481 1483 1484 1486 1487 1488 1490 1491
1397 1396 1395 1394 1394 1394 1394 1395 1395 1395 1396 1398 1399 1401 1403 1405 1407 1410 1414 1416 1419 1423 1426 1430 1434 1438 1442 1446 1451 1455 1459 1463 1467 1470 1474 1477 1479 1482 1483 1484 1485 1486 1487
1396 1395 1393 1392 1391 1391 1391 1391 1391 1391 1392 1393 1394 1395 1397 1400 1402 1405 1409 1411 1414 1417 1421 1425 1429 1433 1437 1442 1446 1450 1453 1458 1462 1465 1469 1472 1475 1477 1479 1481 1482 1482 1483
1394 1393 1392 1391 1389 1388 1388 1387 1387 1387 1388 1389 1390 1391 1392 1394 1397 1400 1403 1406 1409 1413 1417 1420 1423 1427 1432 1436 1440 1444 1447 1452 1456 1460 1464 1467 1470 1472 1475 1477 1478 1480 1478
1393 1391 1390 1389 1388 1387 1386 1385 1385 1385 1385 1385 1386 1386 1387 1389 1391 1394 1397 1401 1404 1407 1411 1414 1418 1422 1426 1431 1435 1439 1442 1447 1450 1454 1458 1461 1464 1467 1470 1472 1473 1475 1475
1392 1391 1390 1389 1387 1386 1385 1384 1383 1382 1382 1382 1382 1382 1382 1384 1386 1388 1391 1395 1398 1402 1405 1409 1412 1416 1420 1425 1429 1433 1437 1441 1445 1448 1452 1455 1459 1462 1464 1466 1468 1469 1470
1393 1391 1390 1388 1386 1384 1384 1383 1382 1380 1379 1379 1378 1378 1378 1379 1381 1383 1386 1390 1393 1396 1400 1403 1407 1411 1415 1419 1423 1427 1431 1435 1438 1442 1446 1449 1453 1456 1458 1461 1462 1464 1465
1390 1389 1388 1386 1384 1383 1382 1381 1380 1378 1377 1377 1376 1375 1375 1375 1376 1378 1381 1384 1388 1391 1395 1398 1401 1405 1409 1413 1417 1421 1425 1428 1432 1436 1440 1443 1447 1449 1452 1454 1456 1458 1460
1389 1388 1386 1384 1383 1382 1381 1379 1378 1376 1375 1374 1373 1372 1371 1371 1372 1374 1377 1380 1383 1386 1390 1393 1396 1399 1403 1407 1411 1415 1419 1423 1427 1431 1434 1438 1441 1443 1446 1449 1451 1453 1454
1387 1386 1385 1383 1382 1380 1379 1377 1376 1374 1373 1371 1370 1369 1368 1368 1369 1370 1372 1375 1378 1381 1385 1388 1391 1394 1398 1402 1405 1409 1413 1417 1421 1425 1428 1432 1435 1438 1441 1443 1445 1447 1448
1385 1384 1383 1381 1380 1378 1376 1375 1373 1372 1370 1369 1368 1366 1365 1365 1365 1366 1368 1371 1373 1376 1379 1382 1386 1389 1393 1396 1400 1404 1408 1412 1416 1419 1423 1426 1429 1432 1435 1437 1439 1441 1443
1384 1382 1381 1380 1378 1376 1374 1372 1370 1369 1368 1367 1366 1364 1363 1363 1362 1363 1364 1366 1369 1371 1374 1377 1381 1384 1387 1391 1395 1399 1403 1406 1410 1414 1417 1420 1423 1426 1429 1432 1434 1436 1437
1381 1380 1379 1377 1375 1373 1372 1370 1368 1366 1365 1364 1363 1362 1360 1360 1360 1360 1361 1363 1365 1367 1370 1373 1376 1379 1383 1386 1390 1394 1398 1401 1405 1408 1412 1415 1418 1421 1424 1426 1428 1430 1431
1379 1377 1376 1374 1373 1371 1369 1368 1366 1364 1363 1361 1359 1358 1357 1357 1356 1357 1358 1359 1361 1363 1366 1369 1372 1375 1378 1382 1385 1389 1392 1396 1399 1403 1406 1409 1412 1415 1418 1421 1422 1424 1426
1376 1375 1373 1372 1370 1369 1367 1366 1364 1362 1360 1359 1357 1355 1354 1354 1354 1354 1355 1356 1357 1359 1362 1365 1368 1371 1374 1378 1381 1384 1387 1390 1394 1397 1401 1404 1407 1410 1413 1415 1417 1419 1420
1374 1372 1371 1369 1368 1366 1365 1363 1361 1360 1359 1357 1355 1353 1352 1351 1351 1351 1351 1352 1354 1356 1358 1361 1364 1367 1370 1374 1377 1380 1383 1385 1388 1391 1394 1398 1401 1405 1408 1411 1413 1414 1417
1370 1369 1367 1366 1365 1363 1362 1360 1359 1358 1356 1355 1353 1351 1349 1348 1348 1347 1348 1349 1351 1352 1354 1357 1360 1363 1366 1369 1372 1375 1378 1381 1384 1386 1389 1393 1396 1400 1403 1406 1408 1410 1412
1367 1365 1364 1362 1361 1361 1359 1358 1357 1355 1354 1352 1350 1348 1347 1346 1345 1344 1345 1346 1347 1348 1351 1353 1356 1359 1362 1365 1368 1371 1374 1377 1380 1382 1385 1389 1392 1395 1398 1401 1403 1406 1408
1363 1362 1361 1359 1358 1358 1356 1355 1354 1353 1351 1349 1347 1346 1344 1343 1342 1342 1343 1343 1344 1346 1348 1350 1352 1355 1358 1361 1363 1366 1369 1372 1375 1378 1381 1384 1388 1391 1394 1396 1399 1401 1403
1359 1358 1357 1356 1355 1354 1353 1352 1351 1350 1348 1347 1345 1343 1342 1341 1340 1340 1340 1340 1342 1343 1345 1347 1349 1351 1353 1356 1360 1361 1364 1367 1370 1373 1376 1379 1382 1386 1389 1392 1394 1397 1399
1354 1353 1353 1352 1351 1351 1350 1349 1348 1347 1345 1344 1342 1341 1339 1338 1338 1337 1337 1338 1340 1341 1342 1344 1346 1348 1350 1353 1356 1359 1361 1363 1366 1369 1371 1374 1377 1380 1383 1387 1389 1392 1395